Location: Jackson Park
(37.2862°N, 79.9123°W)
Time: 12:07:32
(UTC+00:00)

Vanguard 2 - Pass Details

Date: 13 May 2026
Orbit: 553 x 2894 km, 32.9° (Epoch: 11 June)

Event Time Altitude Azimuth Distance (km) Brightness Sun altitude
Rises 12:14:07 0° 278° (W) 6,484 11.7 22.4°
Reaches altitude 10° 12:18:54 10° 275° (W) 5,238 11.3 23.3°
Maximum altitude 12:32:48 56° 203° (SSW) 2,129 9.9 26.1°
Drops below altitude 10° 12:41:24 10° 128° (SE) 3,340 11.6 27.8°
Sets 12:43:47 0° 123° (ESE) 4,052 12.0 28.3°
